Location: Boda
(47.1872°N, 9.5454°E)
Time: 18:33:04
(UTC+00:00)

Meteor 1-24 Rocket - Pass Details

Date: 14 May 2021
Orbit: 790 x 927 km, 81.3° (Epoch: 16 June)

Event Time Altitude Azimuth Distance (km) Brightness Sun altitude
Exits shadow 02:54:59 - 209° (SSW) 2,646 5.7 -8.2°
Reaches altitude 10° 02:55:30 10° 211° (SSW) 2,453 5.5 -8.1°
Maximum altitude 03:00:52 49° 286° (WNW) 1,047 4.0 -7.4°
Drops below altitude 10° 03:06:06 10° 2° (N) 2,395 6.7 -6.7°
Sets 03:08:33 0° 8° (N) 3,318 7.5 -6.3°
